Time,TemperatureF,DewpointF,PressureIn,WindDirection,WindDirectionDegrees,WindSpeedMPH,WindSpeedGustMPH,Humidity,HourlyPrecipIn,Conditions,Clouds,dailyrainin,SoftwareType,DateUTC
2013-03-01 00:00:00,36.0,32.0,27.28,West,270,1.0,2.0,88,0.00,,,0.00,Rainwise IP-100,2013-03-01 07:00:00,
2013-03-01 00:05:00,36.0,32.0,27.28,West,270,0.0,2.0,88,0.00,,,0.00,Rainwise IP-100,2013-03-01 07:05:00,
2013-03-01 00:10:00,36.0,33.0,27.28,West,270,0.0,0.0,89,0.00,,,0.00,Rainwise IP-100,2013-03-01 07:10:00,
2013-03-01 00:12:00,36.0,33.0,27.28,West,270,0.0,0.0,89,0.00,,,0.00,Rainwise IP-100,2013-03-01 07:12:00,
2013-03-01 00:15:00,36.0,33.0,27.28,West,270,0.0,0.0,89,0.00,,,0.00,Rainwise IP-100,2013-03-01 07:15:00,
2013-03-01 00:18:00,36.0,33.0,27.28,West,270,0.0,0.0,89,0.00,,,0.00,Rainwise IP-100,2013-03-01 07:18:00,
2013-03-01 00:23:00,36.0,33.0,27.28,West,270,0.0,0.0,90,0.00,,,0.00,Rainwise IP-100,2013-03-01 07:23:00,
2013-03-01 00:28:00,36.0,33.0,27.29,West,270,0.0,0.0,90,0.00,,,0.00,Rainwise IP-100,2013-03-01 07:28:00,
2013-03-01 00:33:00,36.0,33.0,27.29,West,270,1.0,3.0,89,0.00,,,0.00,Rainwise IP-100,2013-03-01 07:33:00,
2013-03-01 00:38:00,36.0,33.0,27.30,West,270,0.0,4.0,90,0.00,,,0.00,Rainwise IP-100,2013-03-01 07:38:00,
2013-03-01 00:43:00,36.0,33.0,27.30,West,270,0.0,1.0,89,0.00,,,0.00,Rainwise IP-100,2013-03-01 07:43:00,
2013-03-01 00:48:00,36.0,33.0,27.30,WSW,247,0.0,5.0,90,0.00,,,0.00,Rainwise IP-100,2013-03-01 07:48:00,
2013-03-01 00:53:00,36.0,33.0,27.30,South,180,3.0,4.0,90,0.00,,,0.00,Rainwise IP-100,2013-03-01 07:53:00,
2013-03-01 00:58:00,36.0,33.0,27.29,SE,135,3.0,6.0,90,0.00,,,0.00,Rainwise IP-100,2013-03-01 07:58:00,
2013-03-01 01:03:00,36.0,33.0,27.29,SE,135,2.0,5.0,90,0.00,,,0.00,Rainwise IP-100,2013-03-01 08:03:00,
2013-03-01 01:08:00,36.0,33.0,27.29,SSE,157,6.0,6.0,90,0.00,,,0.00,Rainwise IP-100,2013-03-01 08:08:00,
2013-03-01 01:13:00,36.0,33.0,27.29,SE,135,1.0,7.0,90,0.00,,,0.00,Rainwise IP-100,2013-03-01 08:13:00,
2013-03-01 01:18:00,36.0,33.0,27.28,SSE,157,0.0,3.0,90,0.00,,,0.00,Rainwise IP-100,2013-03-01 08:18:00,
2013-03-01 01:23:00,36.0,33.0,27.28,SSE,157,0.0,0.0,90,0.00,,,0.00,Rainwise IP-100,2013-03-01 08:23:00,
2013-03-01 01:28:00,36.0,33.0,27.29,SSE,157,0.0,0.0,90,0.00,,,0.00,Rainwise IP-100,2013-03-01 08:28:00,
2013-03-01 01:33:00,36.0,33.0,27.29,WSW,247,0.0,4.0,90,0.00,,,0.00,Rainwise IP-100,2013-03-01 08:33:00,
2013-03-01 01:38:00,36.0,33.0,27.29,NNW,337,0.0,2.0,89,0.00,,,0.00,Rainwise IP-100,2013-03-01 08:38:00,
2013-03-01 01:43:00,35.0,32.0,27.29,WNW,292,2.0,0.0,90,0.00,,,0.00,Rainwise IP-100,2013-03-01 08:43:00,
2013-03-01 01:48:00,35.0,32.0,27.30,West,270,2.0,4.0,91,0.00,,,0.00,Rainwise IP-100,2013-03-01 08:48:00,
2013-03-01 01:53:00,35.0,32.0,27.30,West,270,0.0,3.0,91,0.00,,,0.00,Rainwise IP-100,2013-03-01 08:53:00,
2013-03-01 01:58:00,35.0,32.0,27.30,West,270,0.0,0.0,92,0.00,,,0.00,Rainwise IP-100,2013-03-01 08:58:00,
2013-03-01 02:03:00,35.0,33.0,27.30,ENE,67,0.0,4.0,93,0.00,,,0.00,Rainwise IP-100,2013-03-01 09:03:00,
2013-03-01 02:08:00,35.0,33.0,27.30,ENE,67,0.0,3.0,93,0.00,,,0.00,Rainwise IP-100,2013-03-01 09:08:00,
2013-03-01 02:13:00,35.0,32.0,27.30,ENE,67,0.0,1.0,92,0.00,,,0.00,Rainwise IP-100,2013-03-01 09:13:00,
2013-03-01 02:18:00,35.0,32.0,27.30,NNE,22,0.0,0.0,91,0.00,,,0.00,Rainwise IP-100,2013-03-01 09:18:00,
2013-03-01 02:23:00,36.0,33.0,27.30,West,270,2.0,5.0,91,0.00,,,0.00,Rainwise IP-100,2013-03-01 09:23:00,
2013-03-01 02:28:00,36.0,33.0,27.30,West,270,1.0,4.0,91,0.00,,,0.00,Rainwise IP-100,2013-03-01 09:28:00,
2013-03-01 02:33:00,36.0,33.0,27.30,NW,315,1.0,3.0,91,0.00,,,0.00,Rainwise IP-100,2013-03-01 09:33:00,
2013-03-01 02:38:00,36.0,33.0,27.30,NNW,337,1.0,4.0,92,0.00,,,0.00,Rainwise IP-100,2013-03-01 09:38:00,
2013-03-01 02:43:00,36.0,33.0,27.30,NNW,337,2.0,3.0,91,0.00,,,0.00,Rainwise IP-100,2013-03-01 09:43:00,
2013-03-01 02:48:00,36.0,33.0,27.30,NNW,337,0.0,2.0,92,0.00,,,0.00,Rainwise IP-100,2013-03-01 09:48:00,
2013-03-01 02:53:00,36.0,33.0,27.30,NNW,337,0.0,1.0,91,0.00,,,0.00,Rainwise IP-100,2013-03-01 09:53:00,
2013-03-01 02:58:00,36.0,33.0,27.30,West,270,4.0,5.0,92,0.00,,,0.00,Rainwise IP-100,2013-03-01 09:58:00,
2013-03-01 03:03:00,36.0,33.0,27.30,West,270,2.0,4.0,92,0.00,,,0.00,Rainwise IP-100,2013-03-01 10:03:00,
2013-03-01 03:08:00,36.0,35.0,27.30,West,270,0.0,3.0,93,0.00,,,0.00,Rainwise IP-100,2013-03-01 10:08:00,
2013-03-01 03:13:00,36.0,33.0,27.30,West,270,3.0,4.0,92,0.00,,,0.00,Rainwise IP-100,2013-03-01 10:13:00,
2013-03-01 03:18:00,36.0,35.0,27.30,West,270,0.0,4.0,93,0.00,,,0.00,Rainwise IP-100,2013-03-01 10:18:00,
2013-03-01 03:23:00,35.0,33.0,27.30,West,270,0.0,3.0,93,0.00,,,0.00,Rainwise IP-100,2013-03-01 10:23:00,
2013-03-01 03:28:00,35.0,33.0,27.30,West,270,0.0,0.0,93,0.00,,,0.00,Rainwise IP-100,2013-03-01 10:28:00,
2013-03-01 03:33:00,35.0,33.0,27.30,West,270,0.0,0.0,93,0.00,,,0.00,Rainwise IP-100,2013-03-01 10:33:00,
2013-03-01 03:38:00,35.0,33.0,27.30,West,270,0.0,2.0,93,0.00,,,0.00,Rainwise IP-100,2013-03-01 10:38:00,
2013-03-01 03:43:00,35.0,33.0,27.30,West,270,0.0,1.0,93,0.00,,,0.00,Rainwise IP-100,2013-03-01 10:43:00,
2013-03-01 03:48:00,35.0,33.0,27.30,West,270,0.0,0.0,93,0.00,,,0.00,Rainwise IP-100,2013-03-01 10:48:00,
2013-03-01 03:53:00,35.0,33.0,27.30,West,270,0.0,1.0,93,0.00,,,0.00,Rainwise IP-100,2013-03-01 10:53:00,
2013-03-01 03:58:00,35.0,33.0,27.30,West,270,0.0,0.0,94,0.00,,,0.00,Rainwise IP-100,2013-03-01 10:58:00,
2013-03-01 04:03:00,35.0,33.0,27.30,West,270,0.0,0.0,93,0.00,,,0.00,Rainwise IP-100,2013-03-01 11:03:00,
2013-03-01 04:08:00,35.0,33.0,27.30,West,270,0.0,0.0,94,0.00,,,0.00,Rainwise IP-100,2013-03-01 11:08:00,
2013-03-01 04:13:00,35.0,33.0,27.30,West,270,0.0,0.0,95,0.00,,,0.00,Rainwise IP-100,2013-03-01 11:13:00,
2013-03-01 04:18:00,35.0,33.0,27.30,West,270,0.0,0.0,94,0.00,,,0.00,Rainwise IP-100,2013-03-01 11:18:00,
2013-03-01 04:23:00,35.0,33.0,27.30,West,270,0.0,0.0,95,0.00,,,0.00,Rainwise IP-100,2013-03-01 11:23:00,
2013-03-01 04:28:00,35.0,33.0,27.30,West,270,0.0,0.0,94,0.00,,,0.00,Rainwise IP-100,2013-03-01 11:28:00,
2013-03-01 04:33:00,35.0,33.0,27.30,West,270,0.0,0.0,95,0.00,,,0.00,Rainwise IP-100,2013-03-01 11:33:00,
2013-03-01 04:38:00,35.0,33.0,27.30,NE,45,6.0,6.0,96,0.00,,,0.00,Rainwise IP-100,2013-03-01 11:38:00,
2013-03-01 04:43:00,35.0,33.0,27.30,NE,45,4.0,6.0,96,0.00,,,0.00,Rainwise IP-100,2013-03-01 11:43:00,
2013-03-01 04:48:00,35.0,33.0,27.30,SSW,202,0.0,5.0,96,0.00,,,0.00,Rainwise IP-100,2013-03-01 11:48:00,
2013-03-01 04:53:00,35.0,33.0,27.30,WSW,247,2.0,6.0,96,0.00,,,0.00,Rainwise IP-100,2013-03-01 11:53:00,
2013-03-01 04:58:00,35.0,33.0,27.30,WSW,247,0.0,3.0,95,0.00,,,0.00,Rainwise IP-100,2013-03-01 11:58:00,
2013-03-01 05:03:00,35.0,33.0,27.30,WSW,247,0.0,1.0,96,0.00,,,0.00,Rainwise IP-100,2013-03-01 12:03:00,
2013-03-01 05:08:00,35.0,33.0,27.30,SSW,202,2.0,2.0,95,0.00,,,0.00,Rainwise IP-100,2013-03-01 12:08:00,
2013-03-01 05:13:00,36.0,35.0,27.30,SSW,202,3.0,5.0,95,0.00,,,0.00,Rainwise IP-100,2013-03-01 12:13:00,
2013-03-01 05:18:00,36.0,35.0,27.31,South,180,0.0,5.0,96,0.00,,,0.00,Rainwise IP-100,2013-03-01 12:18:00,
2013-03-01 05:23:00,36.0,35.0,27.31,South,180,0.0,0.0,96,0.00,,,0.00,Rainwise IP-100,2013-03-01 12:23:00,
2013-03-01 05:28:00,36.0,35.0,27.30,South,180,0.0,1.0,95,0.00,,,0.00,Rainwise IP-100,2013-03-01 12:28:00,
2013-03-01 05:33:00,36.0,35.0,27.30,NNE,22,0.0,4.0,96,0.00,,,0.00,Rainwise IP-100,2013-03-01 12:33:00,
2013-03-01 05:38:00,36.0,35.0,27.30,NNE,22,0.0,1.0,95,0.00,,,0.00,Rainwise IP-100,2013-03-01 12:38:00,
2013-03-01 05:43:00,36.0,35.0,27.30,East,90,1.0,4.0,96,0.00,,,0.00,Rainwise IP-100,2013-03-01 12:43:00,
2013-03-01 05:48:00,36.0,35.0,27.28,NE,45,2.0,5.0,95,0.00,,,0.00,Rainwise IP-100,2013-03-01 12:48:00,
2013-03-01 05:53:00,36.0,35.0,27.28,SSE,157,0.0,2.0,95,0.00,,,0.00,Rainwise IP-100,2013-03-01 12:53:00,
2013-03-01 05:58:00,36.0,35.0,27.27,NNW,337,2.0,5.0,94,0.00,,,0.00,Rainwise IP-100,2013-03-01 12:58:00,
2013-03-01 06:03:00,36.0,35.0,27.27,WSW,247,3.0,4.0,95,0.00,,,0.00,Rainwise IP-100,2013-03-01 13:03:00,
2013-03-01 06:08:00,36.0,35.0,27.28,WSW,247,2.0,4.0,95,0.00,,,0.00,Rainwise IP-100,2013-03-01 13:08:00,
2013-03-01 06:13:00,36.0,35.0,27.28,WSW,247,1.0,5.0,95,0.00,,,0.00,Rainwise IP-100,2013-03-01 13:13:00,
2013-03-01 06:18:00,36.0,35.0,27.28,WNW,292,5.0,6.0,94,0.00,,,0.00,Rainwise IP-100,2013-03-01 13:18:00,
2013-03-01 06:23:00,36.0,35.0,27.28,WNW,292,0.0,5.0,95,0.00,,,0.00,Rainwise IP-100,2013-03-01 13:23:00,
2013-03-01 06:28:00,36.0,35.0,27.28,SE,135,4.0,5.0,95,0.00,,,0.00,Rainwise IP-100,2013-03-01 13:28:00,
2013-03-01 06:33:00,36.0,35.0,27.28,SE,135,0.0,6.0,95,0.00,,,0.00,Rainwise IP-100,2013-03-01 13:33:00,
2013-03-01 06:38:00,36.0,35.0,27.28,East,90,1.0,3.0,95,0.00,,,0.00,Rainwise IP-100,2013-03-01 13:38:00,
2013-03-01 06:43:00,36.0,35.0,27.28,South,180,2.0,3.0,95,0.00,,,0.00,Rainwise IP-100,2013-03-01 13:43:00,
2013-03-01 06:48:00,36.0,35.0,27.28,NNW,337,5.0,7.0,94,0.00,,,0.00,Rainwise IP-100,2013-03-01 13:48:00,
2013-03-01 06:53:00,36.0,35.0,27.28,WNW,292,3.0,6.0,94,0.00,,,0.00,Rainwise IP-100,2013-03-01 13:53:00,
2013-03-01 06:58:00,36.0,35.0,27.28,WSW,247,1.0,5.0,94,0.00,,,0.00,Rainwise IP-100,2013-03-01 13:58:00,
2013-03-01 07:03:00,36.0,35.0,27.28,North,360,0.0,3.0,94,0.00,,,0.00,Rainwise IP-100,2013-03-01 14:03:00,
2013-03-01 07:08:00,36.0,35.0,27.28,ESE,112,0.0,4.0,95,0.00,,,0.00,Rainwise IP-100,2013-03-01 14:08:00,
2013-03-01 07:13:00,36.0,35.0,27.28,SSE,157,1.0,3.0,95,0.00,,,0.00,Rainwise IP-100,2013-03-01 14:13:00,
2013-03-01 07:18:00,36.0,35.0,27.28,SW,225,0.0,4.0,95,0.00,,,0.00,Rainwise IP-100,2013-03-01 14:18:00,
2013-03-01 07:23:00,36.0,35.0,27.28,SW,225,1.0,2.0,95,0.00,,,0.00,Rainwise IP-100,2013-03-01 14:23:00,
2013-03-01 07:28:00,36.0,35.0,27.28,West,270,2.0,4.0,95,0.00,,,0.00,Rainwise IP-100,2013-03-01 14:28:00,
2013-03-01 07:33:00,36.0,35.0,27.28,West,270,0.0,2.0,95,0.00,,,0.00,Rainwise IP-100,2013-03-01 14:33:00,
2013-03-01 07:38:00,36.0,35.0,27.28,NNW,337,0.0,3.0,94,0.00,,,0.00,Rainwise IP-100,2013-03-01 14:38:00,
2013-03-01 07:43:00,36.0,35.0,27.28,NE,45,0.0,3.0,95,0.00,,,0.00,Rainwise IP-100,2013-03-01 14:43:00,
2013-03-01 07:48:00,36.0,35.0,27.29,NE,45,0.0,0.0,94,0.00,,,0.00,Rainwise IP-100,2013-03-01 14:48:00,
2013-03-01 07:53:00,36.0,35.0,27.29,NNE,22,3.0,4.0,94,0.00,,,0.00,Rainwise IP-100,2013-03-01 14:53:00,
2013-03-01 07:58:00,36.0,35.0,27.29,WNW,292,0.0,4.0,95,0.00,,,0.00,Rainwise IP-100,2013-03-01 14:58:00,
2013-03-01 08:03:00,36.0,35.0,27.29,WNW,292,0.0,0.0,95,0.00,,,0.00,Rainwise IP-100,2013-03-01 15:03:00,
2013-03-01 08:08:00,36.0,35.0,27.29,WNW,292,0.0,0.0,95,0.00,,,0.00,Rainwise IP-100,2013-03-01 15:08:00,
2013-03-01 08:13:00,36.0,35.0,27.29,ESE,112,0.0,3.0,95,0.00,,,0.00,Rainwise IP-100,2013-03-01 15:13:00,
2013-03-01 08:18:00,36.0,35.0,27.28,ESE,112,1.0,4.0,94,0.00,,,0.00,Rainwise IP-100,2013-03-01 15:18:00,
2013-03-01 08:23:00,37.0,36.0,27.28,WSW,247,0.0,4.0,94,0.00,,,0.00,Rainwise IP-100,2013-03-01 15:23:00,
2013-03-01 08:28:00,37.0,36.0,27.29,WSW,247,0.0,1.0,94,0.00,,,0.00,Rainwise IP-100,2013-03-01 15:28:00,
2013-03-01 08:33:00,37.0,36.0,27.29,WSW,247,0.0,0.0,94,0.00,,,0.00,Rainwise IP-100,2013-03-01 15:33:00,
2013-03-01 08:38:00,37.0,36.0,27.29,WSW,247,0.0,0.0,94,0.00,,,0.00,Rainwise IP-100,2013-03-01 15:38:00,
2013-03-01 08:43:00,37.0,35.0,27.29,SSE,157,5.0,5.0,93,0.00,,,0.00,Rainwise IP-100,2013-03-01 15:43:00,
2013-03-01 08:48:00,37.0,35.0,27.29,SE,135,0.0,6.0,93,0.00,,,0.00,Rainwise IP-100,2013-03-01 15:48:00,
2013-03-01 08:53:00,37.0,35.0,27.29,SE,135,0.0,1.0,93,0.00,,,0.00,Rainwise IP-100,2013-03-01 15:53:00,
2013-03-01 08:58:00,37.0,35.0,27.29,WSW,247,0.0,3.0,92,0.00,,,0.00,Rainwise IP-100,2013-03-01 15:58:00,
2013-03-01 09:03:00,37.0,35.0,27.29,North,360,2.0,3.0,92,0.00,,,0.00,Rainwise IP-100,2013-03-01 16:03:00,
2013-03-01 09:08:00,37.0,35.0,27.27,North,360,0.0,3.0,91,0.00,,,0.00,Rainwise IP-100,2013-03-01 16:08:00,
2013-03-01 09:13:00,38.0,36.0,27.27,North,360,0.0,0.0,91,0.00,,,0.00,Rainwise IP-100,2013-03-01 16:13:00,
2013-03-01 09:18:00,38.0,36.0,27.27,North,360,0.0,0.0,90,0.00,,,0.00,Rainwise IP-100,2013-03-01 16:18:00,
2013-03-01 09:23:00,38.0,36.0,27.27,WSW,247,2.0,3.0,90,0.00,,,0.00,Rainwise IP-100,2013-03-01 16:23:00,
2013-03-01 09:28:00,38.0,36.0,27.28,SW,225,3.0,3.0,90,0.00,,,0.00,Rainwise IP-100,2013-03-01 16:28:00,
2013-03-01 09:33:00,38.0,35.0,27.28,South,180,2.0,5.0,89,0.00,,,0.00,Rainwise IP-100,2013-03-01 16:33:00,
2013-03-01 09:38:00,38.0,35.0,27.27,SSW,202,4.0,7.0,89,0.00,,,0.00,Rainwise IP-100,2013-03-01 16:38:00,
2013-03-01 09:43:00,38.0,35.0,27.27,South,180,0.0,7.0,89,0.00,,,0.00,Rainwise IP-100,2013-03-01 16:43:00,
2013-03-01 09:48:00,38.0,35.0,27.28,SW,225,0.0,6.0,89,0.00,,,0.00,Rainwise IP-100,2013-03-01 16:48:00,
2013-03-01 09:53:00,39.0,36.0,27.28,NE,45,1.0,4.0,88,0.00,,,0.00,Rainwise IP-100,2013-03-01 16:53:00,
2013-03-01 09:58:00,39.0,36.0,27.29,SSE,157,1.0,3.0,88,0.00,,,0.00,Rainwise IP-100,2013-03-01 16:58:00,
2013-03-01 10:03:00,39.0,36.0,27.29,SSE,157,0.0,3.0,88,0.00,,,0.00,Rainwise IP-100,2013-03-01 17:03:00,
2013-03-01 10:08:00,39.0,36.0,27.28,NE,45,0.0,4.0,88,0.00,,,0.00,Rainwise IP-100,2013-03-01 17:08:00,
2013-03-01 10:13:00,40.0,37.0,27.28,SSW,202,0.0,5.0,87,0.00,,,0.00,Rainwise IP-100,2013-03-01 17:13:00,
2013-03-01 10:18:00,40.0,37.0,27.27,East,90,1.0,3.0,86,0.00,,,0.00,Rainwise IP-100,2013-03-01 17:18:00,
2013-03-01 10:23:00,41.0,37.0,27.27,North,360,0.0,6.0,85,0.00,,,0.00,Rainwise IP-100,2013-03-01 17:23:00,
2013-03-01 10:28:00,41.0,37.0,27.27,NE,45,0.0,3.0,85,0.00,,,0.00,Rainwise IP-100,2013-03-01 17:28:00,
2013-03-01 10:33:00,41.0,37.0,27.27,North,360,4.0,5.0,84,0.00,,,0.00,Rainwise IP-100,2013-03-01 17:33:00,
2013-03-01 10:38:00,42.0,37.0,27.26,NE,45,3.0,4.0,81,0.00,,,0.00,Rainwise IP-100,2013-03-01 17:38:00,
2013-03-01 10:43:00,42.0,37.0,27.26,NE,45,2.0,6.0,80,0.00,,,0.00,Rainwise IP-100,2013-03-01 17:43:00,
2013-03-01 10:48:00,42.0,36.0,27.26,ESE,112,1.0,6.0,79,0.00,,,0.00,Rainwise IP-100,2013-03-01 17:48:00,
2013-03-01 10:53:00,43.0,37.0,27.26,ESE,112,0.0,2.0,80,0.00,,,0.00,Rainwise IP-100,2013-03-01 17:53:00,
2013-03-01 10:58:00,43.0,37.0,27.25,SE,135,0.0,1.0,80,0.00,,,0.00,Rainwise IP-100,2013-03-01 17:58:00,
2013-03-01 11:03:00,44.0,38.0,27.25,NW,315,2.0,3.0,79,0.00,,,0.00,Rainwise IP-100,2013-03-01 18:03:00,
2013-03-01 11:08:00,45.0,38.0,27.25,WSW,247,1.0,4.0,77,0.00,,,0.00,Rainwise IP-100,2013-03-01 18:08:00,
2013-03-01 11:13:00,45.0,38.0,27.25,WSW,247,1.0,2.0,77,0.00,,,0.00,Rainwise IP-100,2013-03-01 18:13:00,
2013-03-01 11:18:00,46.0,39.0,27.24,NNW,337,3.0,4.0,76,0.00,,,0.00,Rainwise IP-100,2013-03-01 18:18:00,
2013-03-01 11:23:00,46.0,38.0,27.24,North,360,1.0,5.0,74,0.00,,,0.00,Rainwise IP-100,2013-03-01 18:23:00,
2013-03-01 11:28:00,46.0,38.0,27.23,WNW,292,5.0,7.0,74,0.00,,,0.00,Rainwise IP-100,2013-03-01 18:28:00,
2013-03-01 11:33:00,46.0,38.0,27.23,NNE,22,0.0,7.0,73,0.00,,,0.00,Rainwise IP-100,2013-03-01 18:33:00,
2013-03-01 11:38:00,47.0,38.0,27.22,WNW,292,1.0,5.0,72,0.00,,,0.00,Rainwise IP-100,2013-03-01 18:38:00,
2013-03-01 11:43:00,48.0,39.0,27.22,North,360,0.0,4.0,70,0.00,,,0.00,Rainwise IP-100,2013-03-01 18:43:00,
2013-03-01 11:48:00,50.0,39.0,27.21,South,180,4.0,4.0,68,0.00,,,0.00,Rainwise IP-100,2013-03-01 18:48:00,
2013-03-01 11:53:00,51.0,40.0,27.21,WNW,292,2.0,4.0,65,0.00,,,0.00,Rainwise IP-100,2013-03-01 18:53:00,
2013-03-01 11:58:00,51.0,40.0,27.20,NW,315,5.0,9.0,65,0.00,,,0.00,Rainwise IP-100,2013-03-01 18:58:00,
2013-03-01 12:03:00,52.0,40.0,27.20,NW,315,3.0,10.0,64,0.00,,,0.00,Rainwise IP-100,2013-03-01 19:03:00,
2013-03-01 12:08:00,52.0,39.0,27.19,WNW,292,3.0,10.0,62,0.00,,,0.00,Rainwise IP-100,2013-03-01 19:08:00,
2013-03-01 12:13:00,52.0,39.0,27.19,West,270,6.0,10.0,61,0.00,,,0.00,Rainwise IP-100,2013-03-01 19:13:00,
2013-03-01 12:18:00,53.0,39.0,27.19,WNW,292,4.0,11.0,59,0.00,,,0.00,Rainwise IP-100,2013-03-01 19:18:00,
2013-03-01 12:23:00,53.0,38.0,27.19,WSW,247,10.0,12.0,58,0.00,,,0.00,Rainwise IP-100,2013-03-01 19:23:00,
2013-03-01 12:28:00,53.0,39.0,27.19,West,270,1.0,14.0,59,0.00,,,0.00,Rainwise IP-100,2013-03-01 19:28:00,
2013-03-01 12:33:00,53.0,38.0,27.19,WNW,292,6.0,12.0,58,0.00,,,0.00,Rainwise IP-100,2013-03-01 19:33:00,
2013-03-01 12:38:00,54.0,38.0,27.19,NW,315,2.0,13.0,55,0.00,,,0.00,Rainwise IP-100,2013-03-01 19:38:00,
2013-03-01 12:43:00,55.0,40.0,27.19,WNW,292,7.0,9.0,56,0.00,,,0.00,Rainwise IP-100,2013-03-01 19:43:00,
2013-03-01 12:48:00,54.0,38.0,27.17,WNW,292,8.0,11.0,55,0.00,,,0.00,Rainwise IP-100,2013-03-01 19:48:00,
2013-03-01 12:53:00,54.0,38.0,27.17,NW,315,7.0,12.0,55,0.00,,,0.00,Rainwise IP-100,2013-03-01 19:53:00,
2013-03-01 12:58:00,54.0,38.0,27.18,NW,315,4.0,12.0,55,0.00,,,0.00,Rainwise IP-100,2013-03-01 19:58:00,
2013-03-01 13:03:00,54.0,38.0,27.18,WSW,247,4.0,15.0,54,0.00,,,0.00,Rainwise IP-100,2013-03-01 20:03:00,
2013-03-01 13:08:00,54.0,38.0,27.18,WNW,292,9.0,13.0,54,0.00,,,0.00,Rainwise IP-100,2013-03-01 20:08:00,
2013-03-01 13:13:00,54.0,38.0,27.18,NW,315,2.0,15.0,54,0.00,,,0.00,Rainwise IP-100,2013-03-01 20:13:00,
2013-03-01 13:18:00,53.0,37.0,27.18,West,270,6.0,17.0,56,0.00,,,0.00,Rainwise IP-100,2013-03-01 20:18:00,
2013-03-01 13:23:00,53.0,37.0,27.18,WNW,292,5.0,15.0,56,0.00,,,0.00,Rainwise IP-100,2013-03-01 20:23:00,
2013-03-01 13:28:00,53.0,37.0,27.18,NW,315,7.0,16.0,56,0.00,,,0.00,Rainwise IP-100,2013-03-01 20:28:00,
2013-03-01 13:33:00,53.0,37.0,27.18,WNW,292,7.0,15.0,56,0.00,,,0.00,Rainwise IP-100,2013-03-01 20:33:00,
2013-03-01 13:38:00,53.0,37.0,27.18,West,270,9.0,16.0,54,0.00,,,0.00,Rainwise IP-100,2013-03-01 20:38:00,
2013-03-01 13:43:00,53.0,37.0,27.18,West,270,13.0,18.0,54,0.00,,,0.00,Rainwise IP-100,2013-03-01 20:43:00,
2013-03-01 13:48:00,53.0,37.0,27.18,WSW,247,6.0,18.0,55,0.00,,,0.00,Rainwise IP-100,2013-03-01 20:48:00,
2013-03-01 13:53:00,53.0,37.0,27.18,WNW,292,10.0,15.0,55,0.00,,,0.00,Rainwise IP-100,2013-03-01 20:53:00,
2013-03-01 13:58:00,53.0,37.0,27.18,WSW,247,8.0,17.0,55,0.00,,,0.00,Rainwise IP-100,2013-03-01 20:58:00,
2013-03-01 14:03:00,53.0,37.0,27.18,North,360,6.0,14.0,56,0.00,,,0.00,Rainwise IP-100,2013-03-01 21:03:00,
2013-03-01 14:08:00,53.0,37.0,27.17,WSW,247,8.0,15.0,56,0.00,,,0.00,Rainwise IP-100,2013-03-01 21:08:00,
2013-03-01 14:13:00,53.0,38.0,27.17,WNW,292,6.0,13.0,57,0.00,,,0.00,Rainwise IP-100,2013-03-01 21:13:00,
2013-03-01 14:18:00,53.0,38.0,27.17,WNW,292,7.0,12.0,57,0.00,,,0.00,Rainwise IP-100,2013-03-01 21:18:00,
2013-03-01 14:23:00,53.0,38.0,27.17,WNW,292,8.0,14.0,57,0.00,,,0.00,Rainwise IP-100,2013-03-01 21:23:00,
2013-03-01 14:28:00,53.0,37.0,27.17,WNW,292,7.0,13.0,56,0.00,,,0.00,Rainwise IP-100,2013-03-01 21:28:00,
2013-03-01 14:33:00,53.0,37.0,27.17,West,270,7.0,13.0,56,0.00,,,0.00,Rainwise IP-100,2013-03-01 21:33:00,
2013-03-01 14:38:00,53.0,38.0,27.18,West,270,10.0,17.0,58,0.00,,,0.00,Rainwise IP-100,2013-03-01 21:38:00,
2013-03-01 14:43:00,52.0,37.0,27.18,NW,315,11.0,17.0,57,0.00,,,0.00,Rainwise IP-100,2013-03-01 21:43:00,
2013-03-01 14:48:00,52.0,37.0,27.18,WNW,292,9.0,17.0,57,0.00,,,0.00,Rainwise IP-100,2013-03-01 21:48:00,
2013-03-01 14:53:00,52.0,38.0,27.18,West,270,9.0,13.0,58,0.00,,,0.00,Rainwise IP-100,2013-03-01 21:53:00,
2013-03-01 14:58:00,52.0,38.0,27.18,WNW,292,7.0,12.0,58,0.00,,,0.00,Rainwise IP-100,2013-03-01 21:58:00,
2013-03-01 15:03:00,52.0,38.0,27.18,West,270,7.0,16.0,58,0.00,,,0.00,Rainwise IP-100,2013-03-01 22:03:00,
2013-03-01 15:08:00,52.0,38.0,27.19,WSW,247,3.0,13.0,59,0.00,,,0.00,Rainwise IP-100,2013-03-01 22:08:00,
2013-03-01 15:13:00,52.0,38.0,27.19,West,270,12.0,12.0,59,0.00,,,0.00,Rainwise IP-100,2013-03-01 22:13:00,
2013-03-01 15:18:00,52.0,38.0,27.19,West,270,9.0,14.0,59,0.00,,,0.00,Rainwise IP-100,2013-03-01 22:18:00,
2013-03-01 15:23:00,52.0,38.0,27.19,West,270,3.0,15.0,60,0.00,,,0.00,Rainwise IP-100,2013-03-01 22:23:00,
2013-03-01 15:28:00,51.0,37.0,27.20,WNW,292,7.0,10.0,58,0.00,,,0.00,Rainwise IP-100,2013-03-01 22:28:00,
2013-03-01 15:33:00,51.0,37.0,27.20,West,270,3.0,12.0,59,0.00,,,0.00,Rainwise IP-100,2013-03-01 22:33:00,
2013-03-01 15:38:00,51.0,37.0,27.20,West,270,4.0,9.0,59,0.00,,,0.00,Rainwise IP-100,2013-03-01 22:38:00,
2013-03-01 15:43:00,51.0,38.0,27.20,West,270,6.0,9.0,60,0.00,,,0.00,Rainwise IP-100,2013-03-01 22:43:00,
2013-03-01 15:48:00,51.0,38.0,27.21,WNW,292,7.0,8.0,60,0.00,,,0.00,Rainwise IP-100,2013-03-01 22:48:00,
2013-03-01 15:53:00,51.0,38.0,27.21,SSW,202,2.0,11.0,61,0.00,,,0.00,Rainwise IP-100,2013-03-01 22:53:00,
2013-03-01 15:58:00,51.0,38.0,27.22,West,270,1.0,7.0,61,0.00,,,0.00,Rainwise IP-100,2013-03-01 22:58:00,
2013-03-01 16:03:00,51.0,38.0,27.22,WNW,292,3.0,7.0,60,0.00,,,0.00,Rainwise IP-100,2013-03-01 23:03:00,
2013-03-01 16:08:00,51.0,38.0,27.22,SW,225,2.0,9.0,61,0.00,,,0.00,Rainwise IP-100,2013-03-01 23:08:00,
2013-03-01 16:13:00,51.0,39.0,27.22,WNW,292,6.0,6.0,62,0.00,,,0.00,Rainwise IP-100,2013-03-01 23:13:00,
2013-03-01 16:18:00,51.0,39.0,27.22,WNW,292,4.0,9.0,62,0.00,,,0.00,Rainwise IP-100,2013-03-01 23:18:00,
2013-03-01 16:23:00,51.0,38.0,27.22,WSW,247,4.0,10.0,61,0.00,,,0.00,Rainwise IP-100,2013-03-01 23:23:00,
2013-03-01 16:28:00,51.0,38.0,27.22,WNW,292,1.0,6.0,61,0.00,,,0.00,Rainwise IP-100,2013-03-01 23:28:00,
2013-03-01 16:33:00,51.0,38.0,27.22,West,270,6.0,9.0,61,0.00,,,0.00,Rainwise IP-100,2013-03-01 23:33:00,
2013-03-01 16:38:00,51.0,38.0,27.22,WSW,247,0.0,7.0,61,0.00,,,0.00,Rainwise IP-100,2013-03-01 23:38:00,
2013-03-01 16:43:00,51.0,39.0,27.22,WNW,292,4.0,7.0,62,0.00,,,0.00,Rainwise IP-100,2013-03-01 23:43:00,
2013-03-01 16:48:00,51.0,39.0,27.22,WNW,292,4.0,9.0,62,0.00,,,0.00,Rainwise IP-100,2013-03-01 23:48:00,
2013-03-01 16:53:00,51.0,39.0,27.22,NW,315,5.0,7.0,63,0.00,,,0.00,Rainwise IP-100,2013-03-01 23:53:00,
2013-03-01 16:58:00,50.0,38.0,27.22,NW,315,2.0,8.0,63,0.00,,,0.00,Rainwise IP-100,2013-03-01 23:58:00,
2013-03-01 17:03:00,50.0,38.0,27.22,West,270,6.0,10.0,63,0.00,,,0.00,Rainwise IP-100,2013-03-02 00:03:00,
2013-03-01 17:08:00,50.0,38.0,27.22,West,270,7.0,8.0,63,0.00,,,0.00,Rainwise IP-100,2013-03-02 00:08:00,
2013-03-01 17:13:00,50.0,38.0,27.22,WNW,292,5.0,9.0,63,0.00,,,0.00,Rainwise IP-100,2013-03-02 00:13:00,
2013-03-01 17:18:00,50.0,38.0,27.22,West,270,4.0,10.0,64,0.00,,,0.00,Rainwise IP-100,2013-03-02 00:18:00,
2013-03-01 17:23:00,50.0,38.0,27.22,West,270,8.0,10.0,64,0.00,,,0.00,Rainwise IP-100,2013-03-02 00:23:00,
2013-03-01 17:28:00,50.0,38.0,27.22,WSW,247,4.0,10.0,64,0.00,,,0.00,Rainwise IP-100,2013-03-02 00:28:00,
2013-03-01 17:33:00,50.0,38.0,27.22,WSW,247,4.0,9.0,65,0.00,,,0.00,Rainwise IP-100,2013-03-02 00:33:00,
2013-03-01 17:38:00,50.0,38.0,27.21,West,270,7.0,9.0,64,0.00,,,0.00,Rainwise IP-100,2013-03-02 00:38:00,
2013-03-01 17:43:00,50.0,38.0,27.21,WNW,292,4.0,8.0,64,0.00,,,0.00,Rainwise IP-100,2013-03-02 00:43:00,
2013-03-01 17:48:00,50.0,38.0,27.22,WSW,247,3.0,6.0,64,0.00,,,0.00,Rainwise IP-100,2013-03-02 00:48:00,
2013-03-01 17:53:00,50.0,38.0,27.22,SSE,157,1.0,9.0,64,0.00,,,0.00,Rainwise IP-100,2013-03-02 00:53:00,
2013-03-01 17:58:00,49.0,38.0,27.21,West,270,7.0,7.0,65,0.00,,,0.00,Rainwise IP-100,2013-03-02 00:58:00,
2013-03-01 18:03:00,49.0,38.0,27.21,WSW,247,1.0,7.0,65,0.00,,,0.00,Rainwise IP-100,2013-03-02 01:03:00,
2013-03-01 18:08:00,49.0,38.0,27.23,WNW,292,7.0,7.0,65,0.00,,,0.00,Rainwise IP-100,2013-03-02 01:08:00,
2013-03-01 18:13:00,49.0,38.0,27.23,South,180,0.0,8.0,66,0.00,,,0.00,Rainwise IP-100,2013-03-02 01:13:00,
2013-03-01 18:18:00,49.0,38.0,27.23,SSW,202,2.0,10.0,66,0.00,,,0.00,Rainwise IP-100,2013-03-02 01:18:00,
2013-03-01 18:23:00,49.0,38.0,27.23,West,270,2.0,10.0,66,0.00,,,0.00,Rainwise IP-100,2013-03-02 01:23:00,
2013-03-01 18:28:00,49.0,38.0,27.23,WNW,292,5.0,9.0,65,0.00,,,0.00,Rainwise IP-100,2013-03-02 01:28:00,
2013-03-01 18:33:00,49.0,38.0,27.23,West,270,7.0,8.0,65,0.00,,,0.00,Rainwise IP-100,2013-03-02 01:33:00,
2013-03-01 18:38:00,49.0,38.0,27.22,WNW,292,5.0,10.0,65,0.00,,,0.00,Rainwise IP-100,2013-03-02 01:38:00,
2013-03-01 18:43:00,49.0,38.0,27.22,WSW,247,8.0,10.0,65,0.00,,,0.00,Rainwise IP-100,2013-03-02 01:43:00,
2013-03-01 18:48:00,48.0,37.0,27.22,WNW,292,3.0,8.0,66,0.00,,,0.00,Rainwise IP-100,2013-03-02 01:48:00,
2013-03-01 18:53:00,48.0,38.0,27.22,West,270,4.0,7.0,67,0.00,,,0.00,Rainwise IP-100,2013-03-02 01:53:00,
2013-03-01 18:58:00,48.0,38.0,27.23,West,270,5.0,6.0,67,0.00,,,0.00,Rainwise IP-100,2013-03-02 01:58:00,
2013-03-01 19:03:00,48.0,38.0,27.23,WSW,247,3.0,6.0,68,0.00,,,0.00,Rainwise IP-100,2013-03-02 02:03:00,
2013-03-01 19:08:00,47.0,36.0,27.23,WSW,247,2.0,4.0,67,0.00,,,0.00,Rainwise IP-100,2013-03-02 02:08:00,
2013-03-01 19:13:00,47.0,37.0,27.23,SSW,202,1.0,5.0,68,0.00,,,0.00,Rainwise IP-100,2013-03-02 02:13:00,
2013-03-01 19:18:00,47.0,37.0,27.23,SW,225,0.0,5.0,68,0.00,,,0.00,Rainwise IP-100,2013-03-02 02:18:00,
2013-03-01 19:23:00,47.0,37.0,27.23,WSW,247,0.0,6.0,68,0.00,,,0.00,Rainwise IP-100,2013-03-02 02:23:00,
2013-03-01 19:28:00,47.0,37.0,27.23,West,270,0.0,3.0,69,0.00,,,0.00,Rainwise IP-100,2013-03-02 02:28:00,
2013-03-01 19:33:00,47.0,37.0,27.23,WNW,292,0.0,4.0,68,0.00,,,0.00,Rainwise IP-100,2013-03-02 02:33:00,
2013-03-01 19:38:00,46.0,36.0,27.23,WNW,292,0.0,2.0,69,0.00,,,0.00,Rainwise IP-100,2013-03-02 02:38:00,
2013-03-01 19:43:00,46.0,36.0,27.23,West,270,0.0,7.0,68,0.00,,,0.00,Rainwise IP-100,2013-03-02 02:43:00,
2013-03-01 19:48:00,46.0,36.0,27.23,WSW,247,0.0,3.0,68,0.00,,,0.00,Rainwise IP-100,2013-03-02 02:48:00,
2013-03-01 19:53:00,46.0,36.0,27.23,West,270,0.0,4.0,68,0.00,,,0.00,Rainwise IP-100,2013-03-02 02:53:00,
2013-03-01 19:58:00,46.0,36.0,27.23,SSE,157,0.0,7.0,69,0.00,,,0.00,Rainwise IP-100,2013-03-02 02:58:00,
2013-03-01 20:03:00,47.0,36.0,27.23,WNW,292,1.0,5.0,67,0.00,,,0.00,Rainwise IP-100,2013-03-02 03:03:00,
2013-03-01 20:08:00,47.0,36.0,27.22,NNW,337,2.0,6.0,66,0.00,,,0.00,Rainwise IP-100,2013-03-02 03:08:00,
2013-03-01 20:13:00,47.0,36.0,27.22,North,360,5.0,5.0,66,0.00,,,0.00,Rainwise IP-100,2013-03-02 03:13:00,
2013-03-01 20:18:00,47.0,36.0,27.22,NW,315,3.0,6.0,66,0.00,,,0.00,Rainwise IP-100,2013-03-02 03:18:00,
2013-03-01 20:23:00,47.0,36.0,27.22,WNW,292,1.0,6.0,66,0.00,,,0.00,Rainwise IP-100,2013-03-02 03:23:00,
2013-03-01 20:28:00,46.0,36.0,27.22,WNW,292,2.0,3.0,67,0.00,,,0.00,Rainwise IP-100,2013-03-02 03:28:00,
2013-03-01 20:33:00,46.0,36.0,27.22,WNW,292,1.0,5.0,67,0.00,,,0.00,Rainwise IP-100,2013-03-02 03:33:00,
2013-03-01 20:38:00,46.0,36.0,27.23,WNW,292,2.0,2.0,67,0.00,,,0.00,Rainwise IP-100,2013-03-02 03:38:00,
2013-03-01 20:43:00,45.0,35.0,27.23,WNW,292,4.0,4.0,68,0.00,,,0.00,Rainwise IP-100,2013-03-02 03:43:00,
2013-03-01 20:48:00,46.0,36.0,27.23,WNW,292,2.0,5.0,67,0.00,,,0.00,Rainwise IP-100,2013-03-02 03:48:00,
2013-03-01 20:53:00,45.0,36.0,27.23,NW,315,3.0,5.0,69,0.00,,,0.00,Rainwise IP-100,2013-03-02 03:53:00,
2013-03-01 20:58:00,45.0,36.0,27.23,NW,315,2.0,6.0,69,0.00,,,0.00,Rainwise IP-100,2013-03-02 03:58:00,
2013-03-01 21:03:00,44.0,36.0,27.23,NNW,337,2.0,5.0,71,0.00,,,0.00,Rainwise IP-100,2013-03-02 04:03:00,
2013-03-01 21:08:00,44.0,36.0,27.24,NNW,337,3.0,4.0,72,0.00,,,0.00,Rainwise IP-100,2013-03-02 04:08:00,
2013-03-01 21:13:00,43.0,36.0,27.24,NNW,337,2.0,5.0,74,0.00,,,0.00,Rainwise IP-100,2013-03-02 04:13:00,
2013-03-01 21:18:00,42.0,36.0,27.25,NW,315,3.0,6.0,76,0.00,,,0.00,Rainwise IP-100,2013-03-02 04:18:00,
2013-03-01 21:23:00,42.0,36.0,27.25,WSW,247,2.0,6.0,76,0.00,,,0.00,Rainwise IP-100,2013-03-02 04:23:00,
2013-03-01 21:28:00,42.0,36.0,27.25,WSW,247,0.0,3.0,77,0.00,,,0.00,Rainwise IP-100,2013-03-02 04:28:00,
2013-03-01 21:33:00,41.0,35.0,27.25,South,180,0.0,4.0,78,0.00,,,0.00,Rainwise IP-100,2013-03-02 04:33:00,
2013-03-01 21:38:00,41.0,36.0,27.26,South,180,0.0,1.0,80,0.00,,,0.00,Rainwise IP-100,2013-03-02 04:38:00,
2013-03-01 21:43:00,40.0,35.0,27.26,South,180,0.0,2.0,80,0.00,,,0.00,Rainwise IP-100,2013-03-02 04:43:00,
2013-03-01 21:48:00,40.0,35.0,27.26,WNW,292,1.0,5.0,81,0.00,,,0.00,Rainwise IP-100,2013-03-02 04:48:00,
2013-03-01 21:53:00,40.0,36.0,27.26,ESE,112,0.0,4.0,83,0.00,,,0.00,Rainwise IP-100,2013-03-02 04:53:00,
2013-03-01 21:58:00,39.0,35.0,27.27,ESE,112,0.0,0.0,83,0.00,,,0.00,Rainwise IP-100,2013-03-02 04:58:00,
2013-03-01 22:00:00,39.0,35.0,27.27,ESE,112,0.0,0.0,83,0.00,,,0.00,Rainwise IP-100,2013-03-02 05:00:00,
2013-03-01 22:05:00,39.0,35.0,27.27,ESE,112,0.0,0.0,85,0.00,,,0.00,Rainwise IP-100,2013-03-02 05:05:00,
2013-03-01 22:10:00,38.0,35.0,27.27,ESE,112,0.0,0.0,85,0.00,,,0.00,Rainwise IP-100,2013-03-02 05:10:00,
2013-03-01 22:15:00,38.0,35.0,27.27,WSW,247,0.0,3.0,85,0.00,,,0.00,Rainwise IP-100,2013-03-02 05:15:00,
2013-03-01 22:20:00,37.0,33.0,27.27,WSW,247,0.0,1.0,87,0.00,,,0.00,Rainwise IP-100,2013-03-02 05:20:00,
2013-03-01 22:25:00,37.0,35.0,27.27,WSW,247,0.0,0.0,89,0.00,,,0.00,Rainwise IP-100,2013-03-02 05:25:00,
2013-03-01 22:30:00,37.0,35.0,27.28,WSW,247,0.0,0.0,91,0.00,,,0.00,Rainwise IP-100,2013-03-02 05:30:00,
2013-03-01 22:35:00,37.0,35.0,27.28,WSW,247,0.0,0.0,89,0.00,,,0.00,Rainwise IP-100,2013-03-02 05:35:00,
2013-03-01 22:40:00,37.0,35.0,27.28,SSW,202,3.0,4.0,90,0.00,,,0.00,Rainwise IP-100,2013-03-02 05:40:00,
2013-03-01 22:45:00,36.0,33.0,27.28,ESE,112,0.0,4.0,90,0.00,,,0.00,Rainwise IP-100,2013-03-02 05:45:00,
2013-03-01 22:50:00,36.0,33.0,27.28,ESE,112,0.0,0.0,91,0.00,,,0.00,Rainwise IP-100,2013-03-02 05:50:00,
2013-03-01 22:55:00,36.0,33.0,27.28,ESE,112,0.0,3.0,91,0.00,,,0.00,Rainwise IP-100,2013-03-02 05:55:00,
2013-03-01 23:00:00,36.0,33.0,27.29,South,180,0.0,3.0,90,0.00,,,0.00,Rainwise IP-100,2013-03-02 06:00:00,
2013-03-01 23:05:00,36.0,33.0,27.29,South,180,3.0,3.0,90,0.00,,,0.00,Rainwise IP-100,2013-03-02 06:05:00,
2013-03-01 23:10:00,35.0,32.0,27.29,WNW,292,0.0,4.0,91,0.00,,,0.00,Rainwise IP-100,2013-03-02 06:10:00,
2013-03-01 23:15:00,35.0,32.0,27.29,WNW,292,0.0,1.0,91,0.00,,,0.00,Rainwise IP-100,2013-03-02 06:15:00,
2013-03-01 23:20:00,34.0,32.0,27.29,WNW,292,0.0,0.0,92,0.00,,,0.00,Rainwise IP-100,2013-03-02 06:20:00,
2013-03-01 23:25:00,34.0,33.0,27.29,WNW,292,0.0,1.0,93,0.00,,,0.00,Rainwise IP-100,2013-03-02 06:25:00,
2013-03-01 23:30:00,34.0,33.0,27.30,WNW,292,0.0,0.0,96,0.00,,,0.00,Rainwise IP-100,2013-03-02 06:30:00,
2013-03-01 23:35:00,34.0,33.0,27.30,WNW,292,0.0,0.0,94,0.00,,,0.00,Rainwise IP-100,2013-03-02 06:35:00,
2013-03-01 23:40:00,34.0,33.0,27.30,WNW,292,0.0,0.0,96,0.00,,,0.00,Rainwise IP-100,2013-03-02 06:40:00,
2013-03-01 23:45:00,34.0,33.0,27.30,WNW,292,0.0,0.0,94,0.00,,,0.00,Rainwise IP-100,2013-03-02 06:45:00,
2013-03-01 23:50:00,34.0,33.0,27.30,WNW,292,0.0,0.0,94,0.00,,,0.00,Rainwise IP-100,2013-03-02 06:50:00,
2013-03-01 23:55:00,33.0,32.0,27.30,WNW,292,0.0,0.0,95,0.00,,,0.00,Rainwise IP-100,2013-03-02 06:55:00,